| time (UTC) | temp F | wind direction | speed knots | gust knots | rain 1hr in | rain 24hr in | rain mn in | humidity % | barometer mb |
| 20260504120107 | 45 | 259 | 0.0 | 0.0 | 0.00 | 0.00 | 0.00 | 93 | 1016.7 |
| 20260504081527 | 47 | 259 | 0.0 | 0.0 | 0.00 | 0.00 | 0.00 | 87 | 1015.8 |
| 20260504044553 | 52 | 259 | 0.0 | 0.0 | 0.00 | 0.00 | 0.00 | 77 | 1016.6 |
| 20260504043110 | 52 | 259 | 0.0 | 0.0 | 0.00 | 0.00 | 0.00 | 77 | 1016.6 |
| 20260504041547 | 53 | 259 | 0.0 | 0.0 | 0.00 | 0.00 | 0.00 | 76 | 1016.6 |
| 20260504040045 | 53 | 259 | 0.0 | 0.0 | 0.00 | 0.00 | 0.00 | 75 | 1016.7 |
| 20260504034550 | 54 | 259 | 0.0 | 0.0 | 0.00 | 0.00 | 0.00 | 73 | 1016.8 |
| 20260504033043 | 54 | 259 | 0.0 | 0.0 | 0.00 | 0.00 | 0.00 | 72 | 1016.8 |
| 20260504031550 | 55 | 259 | 0.0 | 0.0 | 0.00 | 0.00 | 0.00 | 69 | 1016.6 |
| 20260504030100 | 55 | 259 | 0.0 | 0.0 | 0.00 | 0.00 | 0.00 | 68 | 1016.6 |
| 20260504024542 | 55 | 259 | 0.0 | 0.0 | 0.00 | 0.00 | 0.00 | 68 | 1016.6 |
| 20260504023042 | 56 | 259 | 0.0 | 0.0 | 0.00 | 0.00 | 0.00 | 66 | 1016.4 |
| 20260504021546 | 57 | 259 | 0.0 | 0.0 | 0.00 | 0.00 | 0.00 | 64 | 1016.2 |
| 20260504020040 | 57 | 259 | 0.0 | 0.0 | 0.00 | 0.00 | 0.00 | 65 | 1016.1 |
| 20260504014540 | 57 | 259 | 0.0 | 0.0 | 0.00 | 0.00 | 0.00 | 62 | 1015.9 |
| 20260504013041 | 58 | 259 | 0.0 | 0.0 | 0.00 | 0.00 | 0.00 | 59 | 1015.8 |
| 20260504011539 | 59 | 259 | 0.0 | 0.0 | 0.00 | 0.00 | 0.00 | 58 | 1015.6 |
| 20260504010049 | 60 | 259 | 0.0 | 0.0 | 0.00 | 0.00 | 0.00 | 56 | 1015.5 |
| 20260504004544 | 62 | 259 | 0.0 | 0.0 | 0.00 | 0.00 | 0.00 | 57 | 1015.4 |
| 20260504003037 | 63 | 259 | 0.0 | 0.0 | 0.00 | 0.00 | 0.00 | 50 | 1015.3 |
| 20260504001539 | 63 | 259 | 0.0 | 0.0 | 0.00 | 0.00 | 0.00 | 47 | 1015.3 |
| 20260504000037 | 64 | 259 | 0.0 | 0.0 | 0.00 | 0.00 | 0.00 | 45 | 1015.3 |
| 20260503234539 | 65 | 259 | 0.0 | 0.0 | 0.00 | 0.00 | 0.00 | 41 | 1015.2 |
| 20260503233035 | 65 | 259 | 0.0 | 0.9 | 0.00 | 0.00 | 0.00 | 42 | 1015.2 |
| 20260503231534 | 66 | 258 | 0.0 | 0.0 | 0.00 | 0.00 | 0.00 | 41 | 1015.2 |
| 20260503230043 | 66 | 274 | 0.0 | 0.0 | 0.00 | 0.00 | 0.00 | 41 | 1015.2 |
| 20260503224533 | 66 | 249 | 0.0 | 0.0 | 0.00 | 0.00 | 0.00 | 45 | 1015.3 |
| 20260503223032 | 67 | 270 | 0.0 | 0.9 | 0.00 | 0.00 | 0.00 | 41 | 1015.2 |
| 20260503221534 | 67 | 214 | 0.0 | 1.7 | 0.00 | 0.00 | 0.00 | 41 | 1015.3 |
| 20260503220036 | 67 | 293 | 0.0 | 0.0 | 0.00 | 0.00 | 0.00 | 41 | 1015.3 |
| 20260503214545 | 67 | 311 | 0.0 | 0.0 | 0.00 | 0.00 | 0.00 | 43 | 1015.3 |
| 20260503213034 | 67 | 300 | 0.0 | 0.0 | 0.00 | 0.00 | 0.00 | 46 | 1015.4 |
| 20260503211530 | 67 | 299 | 0.0 | 0.9 | 0.00 | 0.00 | 0.00 | 44 | 1015.5 |
| 20260503210028 | 67 | 4 | 0.0 | 1.7 | 0.00 | 0.00 | 0.00 | 40 | 1015.6 |
| 20260503204530 | 68 | 274 | 0.0 | 3.5 | 0.00 | 0.00 | 0.00 | 38 | 1015.7 |
| 20260503203026 | 68 | 278 | 0.0 | 1.7 | 0.00 | 0.00 | 0.00 | 44 | 1016.0 |
| 20260503201526 | 68 | 310 | 0.0 | 1.7 | 0.00 | 0.00 | 0.00 | 44 | 1016.1 |
| 20260503200025 | 68 | 254 | 0.0 | 2.6 | 0.00 | 0.00 | 0.00 | 40 | 1016.4 |
| 20260503194525 | 68 | 316 | 0.0 | 1.7 | 0.00 | 0.00 | 0.00 | 45 | 1016.6 |
| 20260503193024 | 69 | 23 | 0.9 | 3.5 | 0.00 | 0.00 | 0.00 | 42 | 1016.9 |
| 20260503191523 | 70 | 9 | 0.0 | 0.9 | 0.00 | 0.00 | 0.00 | 40 | 1017.2 |
| 20260503190031 | 70 | 282 | 0.9 | 2.6 | 0.00 | 0.00 | 0.00 | 36 | 1017.4 |
| 20260503184523 | 71 | 288 | 0.0 | 1.7 | 0.00 | 0.00 | 0.00 | 36 | 1017.6 |
| 20260503183020 | 72 | 189 | 0.0 | 2.6 | 0.00 | 0.00 | 0.00 | 38 | 1017.8 |
| 20260503181537 | 70 | 340 | 0.0 | 2.6 | 0.00 | 0.00 | 0.00 | 39 | 1018.1 |
| 20260503180029 | 70 | 347 | 0.0 | 1.7 | 0.00 | 0.00 | 0.00 | 39 | 1018.1 |
| 20260503174513 | 69 | 58 | 0.0 | 1.7 | 0.00 | 0.00 | 0.00 | 42 | 1018.1 |
| 20260503173012 | 69 | 240 | 0.0 | 1.7 | 0.00 | 0.00 | 0.00 | 41 | 1018.3 |
| 20260503171515 | 67 | 211 | 0.0 | 1.7 | 0.00 | 0.00 | 0.00 | 45 | 1018.4 |